23:29
Airports
History
Links
Donate
Help keep this website running!
PayPal
Bitcoin
This page is community maintained. The information is intended for PC simulator navigation or reference.
Always use approved charts for navigation.
LFMK
Salvaza
Salvaza (LFMK)
Carcassonne, Languedoc-Roussillon, France (11000)
(C)
Lat/Lng:43° 12' 58.04" N / 2° 18' 19.79" E
43.216122 / 2.305496
Elevation:433'ft / 132mMSL
ID / ICAO:LFMK
Runways:1
Longest:10-28
Asphalt 2,092m / 6,864ft
Controlled:Yes
METAR23:00 GMT 2017-10-20
Altimeter: 30.09
Visibility: 6.2 statute miles
Wind: 8 knots (from 090°)
Temp: 18°c / 64°f
Humidity: 88.1%

METAR: LFMK 202300Z AUTO 09008KT 9999 OVC018 18/16 Q1019

(Powered by phpweather)
Airport Radio Frequencies
LFMK ATIS: 120.02
CARCASSONNE MULT: 121
Tower: 121
Nearby VORs <50NM
Nearby NDBs
Runway 10 / 28
Dimensions:2092.1 x 45.1m 6864' x 148'ft
Surface:Asphalt
Edge Lights:Medium intensity
Runway 10 [A]Runway 28 [B]
Heading:096°TH 276°TH
Lat:
Lng:
43° 13' 1.7"N
2° 17' 33.57"E
43° 12' 54.37"N
2° 19' 6.01"E
TDZ:Yes, lighted
User Notes and Comments
43° 12' 58.04" N / 2° 18' 19.79" E
Distance To
Airport ID:
Nearby Airports
(U) Moussoulens 6.4 NM
LF12 NW 316°
4 Castelnaudary Villeneuve 20.3 NM
LFMW WNW 288°
(U) La Montagne Noire 20.7 NM
LFMG NW 309°
(C) Lezignan-Corbieres 21.7 NM
LFMZ E 97°
(U) Mazamet 23.5 NM
LFCK N 358°
4 Puivert 24.5 NM
LFNW SSW 210°
(U) Revel Montgey 24.6 NM
LFIR NW 318°
VFR Chart
Flight Planning at SkyVector.com